User: anonymous   Login
Location: Frizzleburg
(41.0764°N, 80.4548°W)
Time: 13:37:29
(UTC+00:00)
Language:

Cosmos 2016 Rocket - Orbit

View from above orbital plane
View from above orbital plane
View from above satellite
View from above satellite

Ground track
Ground track

The orbit data is extracted from the following two-line orbital elements,

1 19922U 89028B   20021.78188650  .00000063  00000-0  47680-4 0  9996
2 19922  82.9582  83.0895 0037925 108.1616 252.3676 13.77210711547794
Epoch (UTC): 21 January 2020 18:45:54
Eccentricity: 0.0037925
inclination: 82.9582°
perigee height: 946 km
apogee height: 1001 km
right ascension of ascending node: 83.0895°
argument of perigee: 108.1616°
revolutions per day: 13.77210711
mean anomaly at epoch: 252.3676°
orbit number at epoch: 54779

The dashed part of the orbit path shows where the satellite is in the earth's shadow,  

DLR